Regional Weather Roundup
Issued by NWS Sterling, VA

Home | Current Version | Previous Version | Graphics & Text | Print | Product List | Glossary On
Versions: 1 2 3 4 5 6 7 8 9 10 11 12 13 14 15 16 17 18 19 20 21 22 23 24 25 26 27
000
ASUS41 KLWX 220810
RWRLWX

REGIONAL WEATHER ROUNDUP
NATIONAL WEATHER SERVICE BALTIMORE MD/WASHINGTON DC
400 AM EDT TUE APR 22 2014

Note: "FAIR" indicates few or no clouds below 12,000 feet
with no significant weather and/or obstructions to visibility.
 TC=TEMPERATURE CELSIUS

 * =Non NWS site. Station does not report precipitation (e.g. rain,
    snow, etc.), thunder, or fog.

DCZ001-MDZ009-015-VAZ040>042-051-053>054-220900-
WASHINGTON METRO

CITY           SKY/WX    TMP DP  RH WIND       PRES   REMARKS
WASHINGTON NAT MOCLDY    54  47  77 S10       29.82F
DULLES         MOCLDY    52  41  66 S3        29.79F
ANDREWS AFB    PTCLDY    50  47  88 S6        29.81F
FT BELVOIR     MOCLDY    47  44  90 VRB2      29.81F
QUANTICO       MOCLDY    56  47  71 S12       29.82F
COLLEGE PARK*  PTCLDY    50  45  81 CALM      29.81F
LEESBURG*      MOCLDY    54  43  66 S3        29.80F
MANASSAS*      MOCLDY    46  45  93 CALM      29.80F
GAITHERSBURG*  MOCLDY    54  41  62 S3        29.83S

$$

MDZ006>007-011-014-220900-
BALTIMORE METRO

CITY           SKY/WX    TMP DP  RH WIND       PRES   REMARKS
BWI AIRPORT    MOCLDY    51  44  77 CALM      29.80F
MD SCIENCE CTR   N/A     53  45  74 MISG      29.82F
MARTIN STATE   MOCLDY    52  50  93 CALM      29.83F
ANNAPOLIS      PTCLDY    52  47  83 S7        29.81F
FORT MEADE*    MOCLDY    43  39  87 CALM      29.83F

$$

MDZ012-015-019>023-220900-
MARYLAND EASTERN SHORE

CITY           SKY/WX    TMP DP  RH WIND       PRES   REMARKS
OCEAN CITY     CLEAR     37  36  96 CALM      29.85F
SALISBURY      CLEAR     42  38  85 CALM      29.84F
BAY BRIDGE AP* PTCLDY    52  50  93 S8        29.82F
CAMBRIDGE*     PTCLDY    48  45  87 SE3       29.83F
EASTON*        PTCLDY    50  50 100 S3        29.86F

$$

MDZ017>025-220900-
SOUTHERN MARYLAND

CITY           SKY/WX    TMP DP  RH WIND       PRES   REMARKS
PATUXENT RIVER CLEAR     48  45  89 S3        29.83F
ST INIGOES     CLEAR     51  47  86 SE5       29.82F
LEONARDTOWN*   CLEAR     48  45  87 S3        29.84F

$$

MDZ003>005-220900-
NORTH CENTRAL MARYLAND

CITY           SKY/WX    TMP DP  RH WIND       PRES   REMARKS
FREDERICK*     MOCLDY    48  43  81 CALM      29.82F
HAGERSTOWN APT PTCLDY    56  33  42 SE5       29.76F
WESTMINSTER*   MOCLDY    54  41  62 S7        29.79F

$$

MDZ501>502-220900-
WESTERN MARYLAND

CITY           SKY/WX    TMP DP  RH WIND       PRES   REMARKS
OAKLAND*       CLOUDY    57  28  33 SW6       29.82F
CUMBERLAND*    CLOUDY    54  41  62 CALM      29.81F

$$

VAZ025>031-220900-
SHENANDOAH VALLEY

CITY           SKY/WX    TMP DP  RH WIND       PRES   REMARKS
WINCHESTER*    MOCLDY    57  32  38 S5        29.77F
STAUNTON*      PTCLDY    47  41  79 CALM      29.84S

$$

WVZ021-048>050-054>055-220900-
EASTERN WEST VIRGINIA PANHANDLE

CITY           SKY/WX    TMP DP  RH WIND       PRES   REMARKS
MARTINSBURG    MOCLDY    48  37  65 CALM      29.77F
PETERSBURG*    MOCLDY    55  50  82 CALM      29.80S

$$

VAZ036>039-050-220900-
CENTRAL FOOTHILLS

CITY           SKY/WX    TMP DP  RH WIND       PRES   REMARKS
CHARLOTTESVILL CLOUDY    54  37  52 S5        29.80F
CULPEPER*      MOCLDY    54  37  54 CALM      29.80F

$$

VAZ055>057-220900-
NORTH AND CENTRAL PIEDMONT

CITY           SKY/WX    TMP DP  RH WIND       PRES   REMARKS
FREDERICKSBRG* MOCLDY    54  46  76 S5        29.81F
STAFFORD*      MOCLDY    51  47  85 CALM      29.85F

$$

NCZ024-NYZ072-PAZ021-071-VAZ022-071-220900-
OTHER REGIONAL OBSERVATIONS

CITY           SKY/WX    TMP DP  RH WIND       PRES   REMARKS
NEW YORK CITY  PTCLDY    52  43  71 VRB7      29.82F
PHILADELPHIA   CLEAR     49  44  83 SW8       29.83F
PITTSBURGH     CLOUDY    62  42  47 W5        29.74F
ROANOKE        MOCLDY    58  39  49 N6        29.85F
RICHMOND       MOCLDY    50  45  83 S3        29.83F
RALEIGH        MOCLDY    49  39  68 CALM      29.86F

$$

ANZ530>537-220900-
MARINE OBSERVATIONS

STATION/POSITION TIME  TEMP    WIND        PRES
                       AIR SEA DIR/SP/G
                 (UTC) (F)     (DEG/KT/KT) (MB)
THOMAS PT LIGHT  0800   53 54  180/ 12/ 13 1010.1F
BALT KEY BRIDGE  0800   53     180/  5/  7 1009.6F
COVE POINT       0800   52     190/ 10/ 12 1009.9F
LEWISETTA        0800   51 56  170/  5/  5 1009.7F
SOLOMONS ISLAND  0800      54                N/A
PINEY POINT      0800          170/  6/  7   N/A

$$




USA.gov is the U.S. government's official web portal to all federal, state and local government web resources and services.